EW7906 Weather Reports


time (UTC)temp
F
wind
direction
speed
knots
gust
knots
rain 1hr
in
rain 24hr
in
rain mn
in
humidity
%
barometer
mb
20260504234843 97 170 2.6 12.2 0.00 0.00 0.00 100 1008.1
20260504234344 97 184 4.3 12.2 0.00 0.00 0.00 100 1008.1
20260504233844 97 164 2.6 12.2 0.00 0.00 0.00 100 1008.3
20260504233345 97 170 5.2 9.6 0.00 0.00 0.00 100 1008.3
20260504232844 97 174 4.3 11.3 0.00 0.00 0.00 100 1008.3
20260504232344 98 151 3.5 11.3 0.00 0.00 0.00 100 1008.3
20260504231844 98 168 7.0 11.3 0.00 0.00 0.00 100 1008.3
20260504231614 98 147 6.1 10.4 0.00 0.00 0.00 100 1008.4
20260504230842 98 164 2.6 13.0 0.00 0.00 0.00 100 1008.3
20260504230343 98 203 6.1 13.0 0.00 0.00 0.00 100 1008.4
20260504225843 98 244 4.3 12.2 0.00 0.00 0.00 100 1008.5
20260504225343 98 225 6.1 12.2 0.00 0.00 0.00 100 1008.5
20260504224842 98 177 6.1 12.2 0.00 0.00 0.00 100 1008.7
20260504224342 98 212 5.2 13.0 0.00 0.00 0.00 100 1008.7
20260504223842 98 149 4.3 13.0 0.00 0.00 0.00 100 1008.8
20260504223343 98 174 6.1 13.0 0.00 0.00 0.00 100 1008.7
20260504222844 98 164 4.3 13.0 0.00 0.00 0.00 100 1008.7
20260504222613 98 147 6.1 9.6 0.00 0.00 0.00 100 1008.6
20260504221843 98 181 4.3 8.7 0.00 0.00 0.00 100 1008.8
20260504221342 98 143 5.2 11.3 0.00 0.00 0.00 100 1008.8
20260504220843 98 174 5.2 12.2 0.00 0.00 0.00 100 1008.8
20260504220343 98 191 7.0 12.2 0.00 0.00 0.00 100 1008.9
20260504215843 98 136 2.6 12.2 0.00 0.00 0.00 100 1009.0
20260504215343 99 219 7.0 12.2 0.00 0.00 0.00 100 1008.9
20260504214843 98 178 4.3 13.0 0.00 0.00 0.00 100 1008.8
20260504214342 98 195 4.3 13.0 0.00 0.00 0.00 100 1008.9
20260504213841 98 140 5.2 11.3 0.00 0.00 0.00 100 1009.0
20260504213342 99 177 3.5 11.3 0.00 0.00 0.00 100 1008.9
20260504213114 99 156 3.5 9.6 0.00 0.00 0.00 100 1009.1
20260504212343 98 161 6.1 9.6 0.00 0.00 0.00 100 1009.3
20260504211841 99 222 4.3 9.6 0.00 0.00 0.00 100 1009.4
20260504211341 99 156 5.2 9.6 0.00 0.00 0.00 100 1009.5
20260504210841 98 127 5.2 9.6 0.00 0.00 0.00 100 1009.4
20260504210339 99 90 4.3 9.6 0.00 0.00 0.00 100 1009.6
20260504210110 99 160 5.2 8.7 0.00 0.00 0.00 100 1009.9
20260504205608 99 142 6.1 8.7 0.00 0.00 0.00 100 1009.9
20260504204839 98 160 3.5 9.6 0.00 0.00 0.00 100 1010.0
20260504204835 99 164 4.3 9.6 0.00 0.00 0.00 100 1010.0
20260504203835 98 195 3.5 11.3 0.00 0.00 0.00 100 1009.9
20260504203335 98 167 1.7 11.3 0.00 0.00 0.00 100 1010.2
20260504203105 98 191 5.2 9.6 0.00 0.00 0.00 100 1010.3
20260504202341 98 216 5.2 10.4 0.00 0.00 0.00 100 1010.5
20260504202335 97 126 5.2 10.4 0.00 0.00 0.00 100 1010.4
20260504201334 98 112 0.0 9.6 0.00 0.00 0.00 100 1010.6
20260504200834 98 161 3.5 7.8 0.00 0.00 0.00 100 1010.7
20260504200334 98 209 0.9 9.6 0.00 0.00 0.00 100 1010.7
20260504195331 97 144 7.0 10.4 0.00 0.00 0.00 100 1011.0
20260504195102 97 172 5.2 10.4 0.00 0.00 0.00 100 1010.9
20260504194328 97 160 6.1 11.3 0.00 0.00 0.00 100 1011.2
20260504193828 97 157 4.3 11.3 0.00 0.00 0.00 100 1011.2
20260504193559 96 150 3.5 9.6 0.00 0.00 0.00 100 1011.1
20260504192827 97 236 4.3 9.6 0.00 0.00 0.00 100 1011.2
20260504192326 96 167 5.2 10.4 0.00 0.00 0.00 100 1011.3
20260504192057 97 133 4.3 10.4 0.00 0.00 0.00 100 1011.3
20260504191326 96 161 4.3 11.3 0.00 0.00 0.00 100 1011.5
20260504190825 97 229 4.3 11.3 0.00 0.00 0.00 100 1011.6
20260504190325 96 185 7.0 11.3 0.00 0.00 0.00 100 1011.7
20260504185826 97 172 6.1 11.3 0.00 0.00 0.00 100 1011.8
20260504185315 96 136 6.1 13.0 0.00 0.00 0.00 100 1011.8
20260504184816 94 143 5.2 13.0 0.00 0.00 0.00 100 1011.7
20260504184316 95 47 5.2 11.3 0.00 0.00 0.00 100 1011.8
20260504183819 95 153 5.2 12.2 0.00 0.00 0.00 100 1011.9
20260504183815 95 167 4.3 9.6 0.00 0.00 0.00 100 1011.8
20260504182815 96 111 5.2 12.2 0.00 0.00 0.00 100 1012.1
20260504182314 96 177 3.5 10.4 0.00 0.00 0.00 100 1012.2
20260504181812 94 137 4.3 10.4 0.00 0.00 0.00 100 1012.4
20260504181312 95 161 4.3 10.4 0.00 0.00 0.00 100 1012.4
20260504180812 95 139 6.1 9.6 0.00 0.00 0.00 100 1012.4
20260504180304 95 205 2.6 10.4 0.00 0.00 0.00 100 1012.4
20260504175804 95 203 3.5 10.4 0.00 0.00 0.00 100 1012.5
20260504175304 94 170 4.3 10.4 0.00 0.00 0.00 100 1012.4
20260504174804 94 182 6.1 10.4 0.00 0.00 0.00 100 1012.8
20260504174534 94 171 6.1 13.0 0.00 0.00 0.00 100 1012.9
20260504173803 94 168 5.2 13.0 0.00 0.00 0.00 100 1013.0
20260504173304 94 185 6.1 9.6 0.00 0.00 0.00 100 1013.2
20260504172807 93 144 5.2 10.4 0.00 0.00 0.00 100 1013.5
20260504172802 94 137 6.1 10.4 0.00 0.00 0.00 100 1013.3
20260504171803 92 168 6.1 15.6 0.00 0.00 0.00 100 1013.5
20260504171533 93 140 4.3 15.6 0.00 0.00 0.00 100 1013.6
20260504170800 93 125 5.2 13.0 0.00 0.00 0.00 100 1013.6
20260504170532 93 205 3.5 10.4 0.00 0.00 0.00 100 1013.6
20260504160300 91 180 5.2 15.6 0.00 0.00 0.00 100 1014.2
20260504150757 91 196 7.8 13.9 0.00 0.00 0.00 100 1014.3
20260504150527 91 250 6.1 13.9 0.00 0.00 0.00 100 1014.4
20260504141256 89 174 5.2 13.0 0.00 0.00 0.00 100 1014.2
20260504140756 89 201 4.3 14.8 0.00 0.00 0.00 100 1014.4
20260504140255 89 163 7.8 14.8 0.00 0.00 0.00 100 1014.4
20260504130747 86 158 0.0 4.3 0.00 0.00 0.00 100 1014.4
20260504130248 86 158 0.0 4.3 0.00 0.00 0.00 100 1014.4
20260504110319 85 184 0.0 0.0 0.00 0.00 0.00 100 1013.9
20260504100614 86 184 0.0 0.0 0.00 0.00 0.00 100 1014.0
20260504081743 87 156 0.9 6.1 0.00 0.00 0.00 100 1014.3
20260504081242 87 126 0.0 6.1 0.00 0.00 0.00 100 1014.3
20260504080742 87 165 2.6 4.3 0.00 0.00 0.00 100 1014.5
20260504080515 87 94 0.0 5.2 0.00 0.00 0.00 100 1014.5
20260504050429 89 164 0.0 7.0 0.00 0.00 0.00 100 1016.6
20260504045930 89 180 3.5 7.0 0.00 0.00 0.00 100 1016.5
20260504045428 89 194 0.0 5.2 0.00 0.00 0.00 100 1016.5
20260504044928 89 135 0.0 9.6 0.00 0.00 0.00 100 1016.6
20260504044655 89 99 3.5 9.6 0.00 0.00 0.00 100 1016.7
20260504043924 89 157 3.5 6.1 0.00 0.00 0.00 100 1016.6
20260504043423 89 92 0.0 5.2 0.00 0.00 0.00 100 1016.7
20260504042922 89 125 0.0 6.1 0.00 0.00 0.00 100 1016.8
20260504042411 90 125 0.0 6.1 0.00 0.00 0.00 100 1016.8
20260504041904 90 147 1.7 4.3 0.00 0.00 0.00 100 1016.8
20260504041358 89 172 0.0 0.0 0.00 0.00 0.00 100 1016.9
20260504040849 90 172 0.0 0.0 0.00 0.00 0.00 100 1016.9
20260504040344 90 172 0.0 3.5 0.00 0.00 0.00 100 1016.9
20260504035835 90 172 0.0 3.5 0.00 0.00 0.00 100 1016.9
20260504035328 89 135 0.0 4.3 0.00 0.00 0.00 100 1016.9
20260504034824 89 135 0.0 4.3 0.00 0.00 0.00 100 1016.9
20260504034549 87 129 0.0 0.0 0.00 0.00 0.00 100 1016.8
20260504033816 87 129 0.0 0.0 0.00 0.00 0.00 100 1016.8
20260504033802 87 129 0.0 0.0 0.00 0.00 0.00 100 1016.7
20260504032744 87 129 0.0 0.0 0.00 0.00 0.00 100 1016.7
20260504032220 87 129 0.0 0.0 0.00 0.00 0.00 100 1016.7
20260504031657 87 129 0.0 0.0 0.00 0.00 0.00 100 1016.7
20260504031137 87 129 0.0 0.0 0.00 0.00 0.00 100 1016.7
20260504030613 88 129 0.0 0.0 0.00 0.00 0.00 100 1016.9
20260504030340 89 129 0.0 0.0 0.00 0.00 0.00 100 1016.9
20260504025556 88 129 0.0 0.0 0.00 0.00 0.00 100 1016.8
20260504025053 89 129 0.0 0.0 0.00 0.00 0.00 100 1016.7
20260504024533 89 129 0.0 0.0 0.00 0.00 0.00 100 1016.9
20260504024025 89 129 0.0 0.0 0.00 0.00 0.00 100 1016.8
20260504023513 89 129 0.0 0.0 0.00 0.00 0.00 100 1016.8
20260504023012 89 129 0.0 0.0 0.00 0.00 0.00 100 1016.7
20260504022502 90 129 0.0 0.0 0.00 0.00 0.00 100 1016.7
20260504021954 90 129 0.0 0.0 0.00 0.00 0.00 100 1016.6
20260504021432 90 129 0.0 0.0 0.00 0.00 0.00 100 1016.8
20260504021200 91 129 0.0 0.0 0.00 0.00 0.00 100 1016.8
20260504020429 91 129 0.0 0.0 0.00 0.00 0.00 100 1016.7
20260504015928 91 129 0.0 0.0 0.00 0.00 0.00 100 1016.7
20260504015425 91 129 0.0 0.0 0.00 0.00 0.00 100 1016.5
20260504014916 92 129 0.0 0.0 0.00 0.00 0.00 100 1016.4
20260504014412 91 129 0.0 0.0 0.00 0.00 0.00 100 1016.3
20260504013909 92 129 0.0 0.0 0.00 0.00 0.00 100 1016.2
20260504013638 91 129 0.0 0.0 0.00 0.00 0.00 100 1016.2
20260504012903 92 129 0.0 0.0 0.00 0.00 0.00 100 1016.1
20260504012359 92 129 0.0 0.0 0.00 0.00 0.00 100 1016.2
20260504011835 92 129 0.0 0.0 0.00 0.00 0.00 100 1016.2
20260504011312 92 129 0.0 0.0 0.00 0.00 0.00 100 1016.2
20260504010807 92 129 0.0 0.0 0.00 0.00 0.00 100 1016.2
20260504010258 93 129 0.0 0.0 0.00 0.00 0.00 100 1016.2
20260504005752 93 129 0.0 0.0 0.00 0.00 0.00 100 1016.3
20260504005250 94 129 0.0 0.0 0.00 0.00 0.00 100 1016.2
20260504004717 94 129 0.0 0.0 0.00 0.00 0.00 100 1016.2
20260504004439 94 129 0.0 0.9 0.00 0.00 0.00 100 1016.2
20260504003658 94 129 0.0 5.2 0.00 0.00 0.00 100 1016.2
20260504003147 94 129 0.9 5.2 0.00 0.00 0.00 100 1016.2
20260504002644 95 143 0.0 6.1 0.00 0.00 0.00 100 1016.3
20260504002129 95 143 0.0 6.1 0.00 0.00 0.00 100 1016.4
20260504001626 95 163 0.0 4.3 0.00 0.00 0.00 100 1016.4
20260504001126 95 174 0.0 6.1 0.00 0.00 0.00 100 1016.6
20260504000625 95 137 0.9 6.1 0.00 0.00 0.00 100 1016.5
20260504000119 95 112 0.0 4.3 0.00 0.00 0.00 100 1016.7
20260503235613 95 137 0.0 5.2 0.00 0.00 0.00 100 1016.7
20260503235114 95 129 0.0 7.8 0.00 0.00 0.00 100 1016.7